{"data":{"norad_id":53835,"epoch":"2026-05-25T04:36:32.705280Z","epoch_age_seconds":65264,"freshness":"FRESH","line1":"1 53835U 22114T   26145.19204520  .00002306  00000+0  16293-3 0  9999","line2":"2 53835  53.2139 320.4794 0001250  89.9843 270.1293 15.08831563204388","mean_motion":15.08831563,"eccentricity":0.000125,"inclination_deg":53.2139,"raan_deg":320.4794,"arg_perigee_deg":89.9843,"mean_anomaly_deg":270.1293,"bstar":0.00016293,"rev_number":20438,"period_min":95.43808834015,"perigee_km":538.9044393458,"apogee_km":540.6339158902,"semimajor_km":6917.906177618,"source":"CELESTRAK","updated_at":"2026-05-25T13:38:17.572718Z"}}